{"data":{"norad_id":68859,"epoch":"2026-09-19T11:20:17.257344Z","epoch_age_seconds":104288,"freshness":"FRESH","line1":"1 68859U 26094W   26262.47242196  .00004285  00000+0  13496-3 0  9994","line2":"2 68859  97.2841 275.6634 0001010  57.6323 302.5017 15.33449848 22506","mean_motion":15.33449848,"eccentricity":0.000101,"inclination_deg":97.2841,"raan_deg":275.6634,"arg_perigee_deg":57.6323,"mean_anomaly_deg":302.5017,"bstar":0.00013496,"rev_number":2250,"period_min":93.905907772473,"perigee_km":464.83754003821,"apogee_km":466.21996051977,"semimajor_km":6843.665750279,"source":"CELESTRAK","updated_at":"2026-09-20T09:00:44.044458Z"}}